DELTA 1 DEB, 7892

Orbit data source: Space-Track

DELTA 1 DEB, 7892 is space debris in SSO originally from a launch on Sun, 23 Jul 1972 UTC launched from the Air Force Western Test Range (AFWTR). Debris objects in space refer to the collection of defunct objects orbiting the Earth. Examples of debris include non-operational satellites, rocket bodies, and fragments generated from explosions, collisions, or faulty payload assembly.

Loading next visibility...
Identifier
7892, 1972-058BJ
Orbit
SSO
Country
Flag of USUS
Related business
Manufacturer
Unknown
Mission
Spacecraft
Bus & Motor
Unknown
Mass
Unknown
Launch date (UTC)
1972-07-23 (53 years ago)
Launch vehicle
Unknown
Launch site
Air Force Western Test Range (AFWTR)
Object type
Payload
Rocket body
Debris
Shape & HBR
Unknown shape, 0.1 m
Radar Cross Section
Small (<0.1 m²)

Expand to show TLE details & history
Last TLE update: 14 hours ago

TLE from 14 hours ago
0 DELTA 1 DEB
1 07892U 72058BJ  25351.82247053  .00001975  00000-0  29736-3 0  9997
2 07892  98.5875 288.0859 0096643 295.4063  63.7163 14.72637919658450
Epoch: 2025-12-17T19:44Z
TLE epoch observation values (Epoch: 2025-12-17T19:44:21.453Z)
Latitude
-0.0001°
Longitude
-94.69029°
Altitude
626.087 km
Speed
7.561 km/s
True Right ascension
19h 12m 20s
True Declination
0° 00' 00"
Sunlit
Object was in daylight at epoch
Visualization orbit readout
Latitude
Unknown
Longitude
Unknown
Altitude
Unknown
Speed
Unknown
Apparent Right ascension
Unknown
Apparent Declination
Unknown
Sunlit
N/A
Visualization observer readout
Local Sidereal Time
08:05:45
Azimuth
Unknown
Elevation
Unknown
Doppler factor
Unknown
Orbital elements
Apogee altitude
717.661 km
Perigee altitude
581.822 km
Semi-major axis
7,027.879 km
Eccentricity
0.00966
Inclination
98.5875°
RAAN
288.0859°
Arg. of periapsis
295.4063°
True anomaly
64.71454°
Mean anomaly
63.7163°
Eccentric anomaly
64.21489°
Mean motion
3.68389 °/min
Orbital period
97.72 mins
BSTAR
0.00029736
Loading maneuver chart data...
Computing Atmospheric mass density...
Loading historical data...
Loading historical data...
Loading historical data...
Loading historical data...
Loading historical data...
Loading historical data...
Loading historical data...

Documentation

Showing up to 5 results
|